DW9558 Weather Reports


Display with metric or nautical units.
time (UTC)temp
F
wind
direction
speed
MPH
gust
MPH
rain 1hr
in
rain 24hr
in
rain mn
in
humidity
%
barometer
mb
20260906000022 83 188 1.0 4.0 0.00 0.00 0.00 34 1018.2
20260905234519 82 188 1.0 5.0 0.00 0.00 0.00 35 1018.3
20260905233018 82 188 1.0 5.0 0.00 0.00 0.00 35 1018.3
20260905231517 82 188 1.0 4.0 0.00 0.00 0.00 34 1018.4
20260905230015 83 188 1.0 7.0 0.00 0.00 0.00 34 1018.5
20260905224514 83 188 1.0 5.0 0.00 0.00 0.00 34 1018.6
20260905223011 83 188 0.0 4.0 0.00 0.00 0.00 34 1018.8
20260905221510 82 188 1.0 4.0 0.00 0.00 0.00 34 1018.8
20260905220008 82 188 0.0 5.0 0.00 0.00 0.00 34 1019.0
20260905214504 81 188 0.0 4.0 0.00 0.00 0.00 36 1019.2
20260905213001 80 188 1.0 4.0 0.00 0.00 0.00 35 1019.4
20260905211602 81 188 0.0 3.0 0.00 0.00 0.00 36 1019.6
20260905210059 80 188 0.0 6.0 0.00 0.00 0.00 37 1019.7
20260905204555 79 188 0.0 4.0 0.00 0.00 0.00 40 1019.8
20260905203054 78 188 0.0 5.0 0.00 0.00 0.00 42 1019.9
20260905201609 78 188 2.0 8.0 0.00 0.00 0.00 41 1020.0
20260905200048 77 188 0.0 3.0 0.00 0.00 0.00 44 1020.0
20260905194546 76 188 1.0 4.0 0.00 0.00 0.00 45 1020.3
20260905193049 76 188 0.0 3.0 0.00 0.00 0.00 47 1020.4
20260905191540 75 192 0.0 4.0 0.00 0.00 0.00 47 1020.5
20260905190038 75 192 0.0 7.0 0.00 0.00 0.00 50 1020.5
20260905184542 74 192 0.0 4.0 0.00 0.00 0.00 52 1020.6
20260905183032 74 192 0.0 2.0 0.00 0.00 0.00 53 1020.7
20260905181529 72 192 0.0 2.0 0.00 0.00 0.00 55 1020.7
20260905180025 71 192 0.0 0.0 0.00 0.00 0.00 58 1020.6
20260905174522 70 192 0.0 0.0 0.00 0.00 0.00 59 1020.7
20260905173019 70 192 0.0 0.0 0.00 0.00 0.00 62 1020.6
20260905171517 69 192 0.0 0.0 0.00 0.00 0.00 64 1020.5
20260905170012 67 192 0.0 0.0 0.00 0.00 0.00 68 1020.4
20260905164508 66 192 0.0 0.0 0.00 0.00 0.00 70 1020.5
20260905163006 65 192 0.0 0.0 0.00 0.00 0.00 72 1020.5
20260905161502 64 192 0.0 0.0 0.00 0.00 0.00 73 1020.5
20260905160058 63 192 0.0 0.0 0.00 0.00 0.00 75 1020.4
20260905154609 62 192 0.0 0.0 0.00 0.00 0.00 77 1020.5
20260905153051 61 192 0.0 0.0 0.00 0.00 0.00 79 1020.6
20260905151545 60 192 0.0 0.0 0.00 0.00 0.00 80 1020.4
20260905150040 59 192 0.0 0.0 0.00 0.00 0.00 82 1020.4
20260905144536 58 192 0.0 0.0 0.00 0.00 0.00 84 1020.5
20260905143033 56 192 0.0 0.0 0.00 0.00 0.00 88 1020.3
20260905141534 55 192 0.0 0.0 0.00 0.00 0.00 88 1020.2
20260905140025 55 192 0.0 0.0 0.00 0.00 0.00 87 1020.0
20260905134523 55 192 0.0 0.0 0.00 0.00 0.00 87 1020.0
20260905133022 55 192 0.0 0.0 0.00 0.00 0.00 87 1020.0
20260905131521 55 192 0.0 0.0 0.00 0.00 0.00 87 1019.9
20260905130020 55 192 0.0 0.0 0.00 0.00 0.00 87 1019.8
20260905124523 55 192 0.0 0.0 0.00 0.00 0.00 87 1019.8
20260905123021 55 192 0.0 0.0 0.00 0.00 0.00 87 1019.8
20260905121525 55 192 0.0 0.0 0.00 0.00 0.00 86 1019.8
20260905120017 56 192 0.0 0.0 0.00 0.00 0.00 85 1019.9
20260905114516 56 192 0.0 0.0 0.00 0.00 0.00 85 1019.8
20260905113015 56 192 0.0 0.0 0.00 0.00 0.00 84 1019.7
20260905111513 56 192 0.0 0.0 0.00 0.00 0.00 83 1019.8
20260905110013 57 192 0.0 0.0 0.00 0.00 0.00 83 1019.9
20260905104511 57 192 0.0 0.0 0.00 0.00 0.00 83 1019.9
20260905103010 57 192 0.0 0.0 0.00 0.00 0.00 82 1019.9
20260905101510 57 192 0.0 0.0 0.00 0.00 0.00 82 1020.0
20260905100008 57 192 0.0 0.0 0.00 0.00 0.00 81 1020.0
20260905094507 58 192 0.0 0.0 0.00 0.00 0.00 80 1020.0
20260905093005 58 192 0.0 0.0 0.00 0.00 0.00 78 1020.1
20260905091503 58 192 0.0 0.0 0.00 0.00 0.00 78 1020.1
20260905090002 58 192 0.0 0.0 0.00 0.00 0.00 77 1020.1
20260905084501 59 192 0.0 0.0 0.00 0.00 0.00 77 1020.2
20260905083100 59 192 0.0 0.0 0.00 0.00 0.00 76 1020.2
20260905081559 59 192 0.0 0.0 0.00 0.00 0.00 77 1020.2
20260905080104 59 192 0.0 0.0 0.00 0.00 0.00 77 1020.1
20260905074609 60 192 0.0 0.0 0.00 0.00 0.00 76 1020.0
20260905073053 60 192 0.0 0.0 0.00 0.00 0.00 76 1019.8
20260905071550 60 192 0.0 0.0 0.00 0.00 0.00 75 1019.8
20260905070105 60 192 0.0 0.0 0.00 0.00 0.00 75 1019.7
20260905064548 61 192 0.0 0.0 0.00 0.00 0.00 74 1019.5
20260905063045 62 192 0.0 1.0 0.00 0.00 0.00 72 1019.5
20260905061548 62 192 0.0 0.0 0.00 0.00 0.00 70 1019.5
20260905060045 63 192 0.0 4.0 0.00 0.00 0.00 69 1019.5
20260905054550 63 192 0.0 1.0 0.00 0.00 0.00 66 1019.5
20260905053046 64 192 0.0 0.0 0.00 0.00 0.00 65 1019.6
20260905051546 65 192 0.0 3.0 0.00 0.00 0.00 63 1019.5
20260905050046 65 192 0.0 2.0 0.00 0.00 0.00 61 1019.6
20260905044543 66 192 0.0 0.0 0.00 0.00 0.00 60 1019.6
20260905043043 66 192 0.0 3.0 0.00 0.00 0.00 58 1019.4
20260905041545 67 192 0.0 4.0 0.00 0.00 0.00 57 1019.3
20260905040041 67 192 0.0 5.0 0.00 0.00 0.00 58 1019.2
20260905034542 68 192 0.0 6.0 0.00 0.00 0.00 57 1019.1
20260905033049 69 192 0.0 5.0 0.00 0.00 0.00 56 1018.9
20260905031547 69 192 0.0 7.0 0.00 0.00 0.00 56 1018.7
20260905030046 71 192 1.0 12.0 0.00 0.00 0.00 54 1018.6
20260905024540 72 192 1.0 6.0 0.00 0.00 0.00 52 1018.6
20260905023039 73 192 2.0 6.0 0.00 0.00 0.00 49 1018.5
20260905021538 74 192 0.0 0.0 0.00 0.00 0.00 44 1018.4
20260905020038 74 192 0.0 1.0 0.00 0.00 0.00 43 1018.4
20260905014537 75 192 1.0 3.0 0.00 0.00 0.00 40 1018.5
20260905013036 75 192 1.0 5.0 0.00 0.00 0.00 39 1018.4
20260905011536 75 192 0.0 4.0 0.00 0.00 0.00 39 1018.3
20260905010035 76 192 0.0 6.0 0.00 0.00 0.00 37 1018.3
20260905004535 77 192 0.0 3.0 0.00 0.00 0.00 37 1018.2
20260905003034 77 192 0.0 4.0 0.00 0.00 0.00 38 1018.2
20260905001534 78 192 1.0 4.0 0.00 0.00 0.00 38 1018.3